RH
66 51 58 55 42 31 29 22 17 14 12 12 22 54 72 52 34 34 32 25 22 18 19 34 46 49 56
67 54 50 47 39 27 26 23 18 14 12 12 15 27 48 47 30 20 20 19 17 15 15 14 12 12 18
83 71 61 50 42 35 28 24 20 17 14 12 12 12 16 23 20 14 13 14 15 16 17 18 19 19 19
85 83 78 65 54 44 36 31 25 20 16 13 13 13 12 13 12 11 13 15 16 18 19 21 21 22 22
91 86 81 76 70 60 48 38 34 30 22 18 16 13 12 11 11 12 14 17 19 20 21 22 22 22 22
93 91 85 84 80 72 62 51 47 40 30 24 20 17 14 13 13 14 18 18 19 21 22 24 24 24 24
93 85 84 82 85 80 74 65 57 51 41 37 30 24 19 15 14 16 16 17 17 19 22 24 26 26 26
91 87 88 86 83 81 78 76 68 60 52 50 42 30 22 17 16 16 16 16 17 18 22 25 27 27 28
70 73 86 88 88 85 83 87 82 74 68 66 52 38 27 21 18 16 17 17 18 18 21 28 29 28 29
68 70 76 84 93 90 89 87 87 90 71 66 50 39 27 22 21 20 21 23 25 25 24 26 30 30 31
82 83 84 91 94 95 93 93 90 86 85 75 60 48 34 28 27 26 24 24 24 26 27 31 32 31 30
100 100 100 99 99 100 100 100 98 90 88 79 73 62 56 46 37 32 46 60 37 28 28 29 31 32 31
98 96 96 99 100 97 90 94 96 97 95 90 82 74 65 55 49 41 61 70 55 41 34 34 34 36 35
87 87 90 94 96 100 99 100 100 99 99 99 99 95 81 64 56 51 77 69 51 47 46 42 38 38 38
89 84 83 85 88 93 98 100 100 99 100 98 98 99 98 91 82 78 91 95 92 60 61 48 40 42 55
100 100 98 97 91 83 92 96 98 100 99 99 98 99 98 93 94 87 87 85 76 70 62 51 50 60 83
98 99 100 100 100 100 93 98 95 99 98 99 99 98 99 97 92 88 88 91 92 91 95 98 94 84 95
Wind_Speed
24 20 21 20 19 17 15 14 13 13 12 11 10 9 9 9 9 9 9 9 8 7 6 5 4 3 4
26 22 21 19 20 18 15 15 16 14 13 11 11 10 9 10 9 9 9 8 8 7 5 3 2 2 3
30 24 22 20 20 19 18 17 16 14 13 13 13 12 11 11 10 10 9 9 8 7 6 5 4 3 3
28 26 24 20 21 20 19 17 15 14 13 13 13 12 11 10 10 10 9 9 9 9 9 8 8 7 7
28 27 26 23 21 21 21 18 16 16 14 11 10 10 10 10 10 11 11 11 11 10 10 11 11 11 11
30 29 28 24 21 21 20 19 19 15 13 13 15 13 12 12 12 12 12 12 12 12 12 12 11 11 11
30 30 27 22 20 22 21 20 20 18 20 21 17 16 14 13 12 13 13 14 14 14 15 14 13 13 13
23 23 22 19 19 20 21 22 22 19 18 23 20 17 14 13 13 13 14 14 15 15 16 16 15 15 15
19 20 20 18 18 18 20 19 21 21 20 20 21 18 16 14 14 14 15 16 17 16 16 16 17 16 15
17 17 17 17 17 17 16 19 20 22 19 16 14 13 7 10 11 9 9 9 11 13 14 16 17 17 15
18 17 17 20 21 20 19 18 18 20 19 16 16 14 12 13 14 15 12 12 13 14 13 12 13 15 16
18 20 20 19 16 15 15 18 18 19 17 18 21 20 18 18 16 14 12 15 16 15 16 16 16 15 17
20 19 20 22 23 20 18 18 17 17 19 19 20 20 21 22 22 19 17 18 18 17 18 19 19 18 19
14 12 14 17 20 19 19 19 19 19 18 19 21 22 22 22 22 21 20 18 15 16 17 18 17 15 16
18 16 14 13 15 16 19 19 20 20 19 19 19 21 22 22 23 23 23 21 19 19 20 19 16 15 17
19 20 18 15 14 15 17 18 19 20 21 19 17 18 20 21 20 20 17 16 15 19 19 19 18 16 21
20 20 20 19 16 17 16 17 18 19 18 16 16 17 19 23 18 15 14 11 13 16 17 18 19 17 19
Wind_Direction
284 297 298 303 305 306 313 311 312 312 308 306 305 303 304 307 306 302 304 309 314 318 318 315 301 281 247
289 293 296 300 303 305 308 306 309 308 306 307 304 300 295 294 293 290 291 294 299 305 310 310 301 271 258
282 288 292 297 296 300 306 305 303 301 300 300 300 298 294 290 288 285 281 280 280 283 286 286 277 268 261
275 281 285 290 292 299 297 298 297 297 298 296 296 295 293 285 281 276 273 273 274 276 278 278 279 276 270
269 274 278 285 290 293 293 294 293 298 296 293 293 299 296 289 276 269 269 268 269 272 274 276 277 279 280
266 268 274 279 284 286 285 286 294 299 294 291 292 291 286 281 275 272 269 268 268 270 270 273 275 275 274
268 267 272 276 276 273 276 280 284 288 289 292 292 291 285 278 271 268 268 271 269 265 264 264 266 267 268
275 278 275 271 264 267 268 271 276 277 279 284 290 292 285 275 269 266 267 269 268 266 263 260 261 264 268
271 271 273 271 267 263 265 268 271 272 271 277 283 287 279 270 266 267 269 271 273 269 262 259 260 260 262
276 276 272 267 268 272 273 273 272 277 277 266 271 271 277 272 263 262 275 277 275 278 267 263 260 260 257
283 277 275 276 274 271 269 267 265 263 263 266 264 266 254 263 271 278 278 280 280 279 275 269 264 264 264
283 287 287 285 285 283 283 270 263 265 263 255 257 263 267 269 268 266 280 289 284 282 274 269 267 265 265
277 283 288 281 269 265 265 270 274 263 258 258 260 262 264 265 269 271 286 290 281 282 274 270 266 261 264
278 286 292 287 282 276 270 268 269 267 268 265 263 261 262 264 268 267 283 276 269 278 274 269 264 256 259
266 272 275 284 289 280 277 270 269 266 267 271 270 263 258 258 264 270 276 274 269 266 273 279 267 262 263
272 268 271 271 276 285 278 271 267 265 265 269 265 260 259 261 267 275 273 271 262 267 271 271 267 269 274
277 275 272 265 269 272 278 272 265 265 266 263 260 257 257 262 272 278 282 276 264 266 274 277 280 277 277